CZ-6A DEB, 56650

Orbit data source: Space-Track

CZ-6A DEB, 56650 is space debris in SSO originally from a launch on Fri, 11 Nov 2022 UTC launched from the Taiyaun Space Center, China (TSC). Debris objects in space refer to the collection of defunct objects orbiting the Earth. Examples of debris include non-operational satellites, rocket bodies, and fragments generated from explosions, collisions, or faulty payload assembly.

Loading next visibility...
Identifier
56650, 2022-151AGA
Orbit
SSO
Country
Flag of CNCN / PRC
Related business
Manufacturer
SAST
Mission
Spacecraft
Bus & Motor
Unknown
Mass
Unknown
Launch date (UTC)
2022-11-11 (4 years ago)
Launch vehicle
Unknown
Launch site
Taiyaun Space Center, China (TSC)
Object type
Payload
Rocket body
Debris
Shape & HBR
Unknown shape, 0.1 m
Radar Cross Section
Small (<0.1 m²)

Expand to show TLE details & history
Last TLE update: 21 hours ago

TLE from 21 hours ago
0 CZ-6A DEB
1 56650U 22151AGA 26263.97769349  .00001113  00000-0  57109-3 0  9997
2 56650  98.8334 268.4545 0046016  49.0480 311.4663 14.16866861184425
Epoch: 2026-09-20T23:27Z
TLE epoch observation values (Epoch: 2026-09-20T23:27:52.717Z)
Latitude
-0.00002°
Longitude
-83.37928°
Altitude
816.974 km
Speed
7.456 km/s
True Right ascension
17h 53m 49s
True Declination
0° 00' 00"
Sunlit
Object was in daylight at epoch
Visualization orbit readout
Latitude
Unknown
Longitude
Unknown
Altitude
Unknown
Speed
Unknown
Apparent Right ascension
Unknown
Apparent Declination
Unknown
Sunlit
N/A
Visualization observer readout
Local Sidereal Time
13:49:59
Azimuth
Unknown
Elevation
Unknown
Doppler factor
Unknown
Orbital elements
Apogee altitude
866.32 km
Perigee altitude
799.954 km
Semi-major axis
7,211.274 km
Eccentricity
0.0046
Inclination
98.8334°
RAAN
268.4545°
Arg. of periapsis
49.048°
True anomaly
311.06966°
Mean anomaly
311.4663°
Eccentric anomaly
311.26813°
Mean motion
3.54426 °/min
Orbital period
101.57 mins
BSTAR
0.00057109
Loading maneuver chart data...
Computing Atmospheric mass density...
Loading historical data...
Loading historical data...
Loading historical data...
Loading historical data...
Loading historical data...
Loading historical data...
Loading historical data...

Documentation

Showing up to 5 results
|